Location: Fort Worth, Tx
(32.7431°N, 97.3695°W)
Time: 07:49:21
(UTC-04:00)

Explorer 11/Cluster Stage 4 - Pass Details

Date: 29 January 2023
Orbit: 466 x 1241 km, 28.8° (Epoch: 02 April)

Event Time Altitude Azimuth Distance (km) Brightness Sun altitude
Rises 07:38:55 0° 232° (SW) 4,147 9.9 -10.3°
Reaches altitude 10° 07:42:01 10° 225° (SW) 3,198 9.4 -9.7°
Maximum altitude 07:49:28 39° 160° (SSE) 1,721 8.7 -8.2°
Drops below altitude 10° 07:56:24 10° 95° (E) 2,989 11.2 -6.8°
Sets 07:59:13 0° 87° (E) 3,853 11.7 -6.2°
